Location: Home
(42.5358°N, 72.7383°W)
Time: 19:43:06
(UTC-05:00)

Explorer 7 - Pass Details

Date: 06 December 2021
Orbit: 483 x 674 km, 50.3° (Epoch: 23 January)

Event Time Altitude Azimuth Distance (km) Brightness Sun altitude
Rises 11:52:40 0° 286° (WNW) 2,597 10.1 24.8°
Reaches altitude 10° 11:55:52 10° 258° (WSW) 1,682 9.6 24.8°
Maximum altitude 11:57:39 13° 229° (SW) 1,488 9.8 24.8°
Drops below altitude 10° 11:59:26 10° 201° (SSW) 1,658 10.9 24.8°
Sets 12:02:33 0° 172° (S) 2,527 11.5 24.7°
